Location: Nairn
(57.5833°N, 3.8667°W)
Time: 19:24:21
(UTC+00:00)

USA 238 DEB - Pass Details

Date: 07 August 2020
Orbit: 1006 x 1206 km, 63.4° (Epoch: 19 September)

Event Time Altitude Azimuth Distance (km) Brightness Sun altitude
Rises 01:41:11 0° 265° (W) 3,806 6.3 -14.3°
Reaches altitude 10° 01:43:49 10° 270° (W) 2,877 5.8 -14.1°
Maximum altitude 01:50:32 57° 349° (NNW) 1,274 4.4 -13.8°
Drops below altitude 10° 01:57:37 10° 67° (ENE) 3,025 6.8 -13.4°
Sets 02:00:27 0° 72° (ENE) 4,014 7.4 -13.3°
